Location: Ridgway Nature & Science Center
(38.1460°N, 107.7553°W)
Time: 01:57:46
(UTC-06:00)

Envisat - Visible Passes

Search period start: 28 October 2021 00:00
Search period end: 07 November 2021 00:00
Orbit: 764 x 766 km, 98.2° (Epoch: 27 October)

Date Brightness Start Highest point End Pass type
(mag) Time Alt. Az. Time Alt. Az. Time Alt. Az.
28 Oct 3.9 05:54:01 10° NNE 05:58:57 51° E 06:03:52 10° S visible
28 Oct 6.2 18:48:11 10° SW 18:51:02 15° W 18:53:54 10° WNW visible
29 Oct 5.4 05:18:00 10° NE 05:21:55 22° E 05:25:48 10° SE visible
29 Oct 3.4 06:56:20 10° N 07:01:01 39° WNW 07:05:41 10° SW visible
30 Oct 3.0 06:19:12 10° NNE 06:24:18 89° WNW 06:29:22 10° SSW visible
31 Oct 4.4 05:42:38 10° NNE 05:47:23 39° E 05:52:06 10° SSE visible
31 Oct 6.0 18:35:48 10° SW 18:39:24 19° W 18:43:01 10° NW visible
01 Nov 5.7 05:07:00 10° NE 05:10:17 17° E 05:13:33 10° SE visible
01 Nov 3.2 06:44:39 10° N 06:49:33 50° WNW 06:54:25 10° SSW visible
02 Nov 3.2 06:07:42 10° NNE 06:12:46 72° ESE 06:17:49 10° S visible
02 Nov 6.7 19:04:21 10° W 19:04:59 10° W 19:05:38 10° W visible
03 Nov 4.8 05:31:20 10° NE 05:35:48 30° E 05:40:14 10° SSE visible
03 Nov 3.8 07:10:24 10° N 07:14:42 28° WNW 07:18:59 10° SW visible
04 Nov 6.0 04:56:18 10° ENE 04:58:38 13° E 05:00:58 10° ESE visible
04 Nov 2.9 06:33:02 10° N 06:38:03 64° WNW 06:43:03 10° SSW visible
05 Nov 3.7 05:56:14 10° NNE 06:01:13 55° E 06:06:10 10° S visible
05 Nov 6.2 18:50:47 10° WSW 18:53:19 14° W 18:55:52 10° WNW visible
06 Nov 5.3 05:20:08 10° NE 05:24:12 24° E 05:28:14 10° SSE visible
06 Nov 3.5 06:58:38 10° N 07:03:15 36° WNW 07:07:50 10° SW visible
